Time,TemperatureF,DewpointF,PressureIn,WindDirection,WindDirectionDegrees,WindSpeedMPH,WindSpeedGustMPH,Humidity,HourlyPrecipIn,Conditions,Clouds,dailyrainin,SoftwareType,DateUTC
2013-05-05 00:01:00,43.7,36.0,30.36,NW,315,7.5,13.5,74,0.00,,,0.00,Rainwise IP-100,2013-05-05 04:01:00,
2013-05-05 00:06:00,43.9,36.0,30.35,NW,315,9.6,13.8,74,0.00,,,0.00,Rainwise IP-100,2013-05-05 04:06:00,
2013-05-05 00:11:00,44.1,36.0,30.36,WNW,292,7.2,13.5,73,0.00,,,0.00,Rainwise IP-100,2013-05-05 04:11:00,
2013-05-05 00:16:00,44.2,36.0,30.36,WNW,292,10.7,14.5,73,0.00,,,0.00,Rainwise IP-100,2013-05-05 04:16:00,
2013-05-05 00:21:00,44.2,36.0,30.36,WNW,292,7.2,13.3,73,0.00,,,0.00,Rainwise IP-100,2013-05-05 04:21:00,
2013-05-05 00:26:00,44.0,36.0,30.35,West,270,12.1,12.1,74,0.00,,,0.00,Rainwise IP-100,2013-05-05 04:26:00,
2013-05-05 00:31:00,43.9,36.0,30.35,NW,315,6.3,12.1,74,0.00,,,0.00,Rainwise IP-100,2013-05-05 04:31:00,
2013-05-05 00:36:00,43.7,37.0,30.35,NW,315,5.4,10.5,76,0.00,,,0.00,Rainwise IP-100,2013-05-05 04:36:00,
2013-05-05 00:41:00,43.5,37.0,30.35,NNW,337,6.5,10.0,77,0.00,,,0.00,Rainwise IP-100,2013-05-05 04:41:00,
2013-05-05 00:46:00,43.3,37.0,30.35,NNW,337,6.1,8.9,77,0.00,,,0.00,Rainwise IP-100,2013-05-05 04:46:00,
2013-05-05 00:51:00,43.0,37.0,30.36,NW,315,3.7,8.2,79,0.00,,,0.00,Rainwise IP-100,2013-05-05 04:51:00,
2013-05-05 00:56:00,42.8,37.0,30.36,NW,315,4.7,6.5,79,0.00,,,0.00,Rainwise IP-100,2013-05-05 04:56:00,
2013-05-05 01:01:00,42.7,37.0,30.35,NW,315,2.8,5.6,80,0.00,,,0.00,Rainwise IP-100,2013-05-05 05:01:00,
2013-05-05 01:06:00,42.6,38.0,30.35,NW,315,2.8,4.9,81,0.00,,,0.00,Rainwise IP-100,2013-05-05 05:06:00,
2013-05-05 01:11:00,42.6,38.0,30.35,NW,315,3.7,3.7,81,0.00,,,0.00,Rainwise IP-100,2013-05-05 05:11:00,
2013-05-05 01:16:00,42.6,38.0,30.35,NW,315,3.3,3.7,82,0.00,,,0.00,Rainwise IP-100,2013-05-05 05:16:00,
2013-05-05 01:21:00,42.5,38.0,30.35,WNW,292,4.7,4.7,82,0.00,,,0.00,Rainwise IP-100,2013-05-05 05:21:00,
2013-05-05 01:26:00,42.4,37.0,30.34,NW,315,1.9,4.9,83,0.00,,,0.00,Rainwise IP-100,2013-05-05 05:26:00,
2013-05-05 01:31:00,42.4,37.0,30.35,NNW,337,2.3,5.6,83,0.00,,,0.00,Rainwise IP-100,2013-05-05 05:31:00,
2013-05-05 01:36:00,42.3,37.0,30.34,NW,315,4.4,4.9,83,0.00,,,0.00,Rainwise IP-100,2013-05-05 05:36:00,
2013-05-05 01:41:00,42.2,37.0,30.33,NW,315,0.0,4.4,83,0.00,,,0.00,Rainwise IP-100,2013-05-05 05:41:00,
2013-05-05 01:46:00,42.1,38.0,30.34,North,0,0.0,2.8,84,0.00,,,0.00,Rainwise IP-100,2013-05-05 05:46:00,
2013-05-05 01:51:00,42.0,38.0,30.33,NNW,337,1.6,3.0,85,0.00,,,0.00,Rainwise IP-100,2013-05-05 05:51:00,
2013-05-05 01:56:00,41.9,38.0,30.33,NNE,22,0.0,1.9,85,0.00,,,0.00,Rainwise IP-100,2013-05-05 05:56:00,
2013-05-05 02:01:00,41.9,38.0,30.33,West,270,0.0,4.0,85,0.00,,,0.00,Rainwise IP-100,2013-05-05 06:01:00,
2013-05-05 02:06:00,42.0,38.0,30.33,NW,315,0.0,3.3,84,0.00,,,0.00,Rainwise IP-100,2013-05-05 06:06:00,
2013-05-05 02:11:00,42.1,38.0,30.33,NE,45,0.0,2.8,84,0.00,,,0.00,Rainwise IP-100,2013-05-05 06:11:00,
2013-05-05 02:16:00,42.0,38.0,30.33,NE,45,0.0,2.3,84,0.00,,,0.00,Rainwise IP-100,2013-05-05 06:16:00,
2013-05-05 02:21:00,41.9,38.0,30.33,NNW,337,2.8,2.8,84,0.00,,,0.00,Rainwise IP-100,2013-05-05 06:21:00,
2013-05-05 02:26:00,41.9,38.0,30.33,NW,315,1.9,3.0,84,0.00,,,0.00,Rainwise IP-100,2013-05-05 06:26:00,
2013-05-05 02:31:00,41.8,38.0,30.33,NNW,337,2.1,4.7,85,0.00,,,0.00,Rainwise IP-100,2013-05-05 06:31:00,
2013-05-05 02:36:00,41.6,38.0,30.33,NW,315,3.3,4.4,85,0.00,,,0.00,Rainwise IP-100,2013-05-05 06:36:00,
2013-05-05 02:41:00,41.5,38.0,30.33,NNW,337,0.0,3.5,86,0.00,,,0.00,Rainwise IP-100,2013-05-05 06:41:00,
2013-05-05 02:46:00,41.4,37.0,30.33,WNW,292,0.0,1.9,86,0.00,,,0.00,Rainwise IP-100,2013-05-05 06:46:00,
2013-05-05 02:51:00,41.4,38.0,30.33,NNW,337,0.0,2.8,87,0.00,,,0.00,Rainwise IP-100,2013-05-05 06:51:00,
2013-05-05 02:56:00,41.4,38.0,30.33,NNW,337,0.0,4.4,87,0.00,,,0.00,Rainwise IP-100,2013-05-05 06:56:00,
2013-05-05 03:01:00,41.4,38.0,30.33,NW,315,0.0,0.0,87,0.00,,,0.00,Rainwise IP-100,2013-05-05 07:01:00,
2013-05-05 03:06:00,41.5,38.0,30.33,NW,315,0.0,0.0,87,0.00,,,0.00,Rainwise IP-100,2013-05-05 07:06:00,
2013-05-05 03:11:00,41.5,38.0,30.33,NNE,22,0.0,4.4,87,0.00,,,0.00,Rainwise IP-100,2013-05-05 07:11:00,
2013-05-05 03:16:00,41.6,38.0,30.33,NNW,337,4.2,4.2,87,0.00,,,0.00,Rainwise IP-100,2013-05-05 07:16:00,
2013-05-05 03:21:00,41.7,38.0,30.33,NW,315,3.0,4.4,86,0.00,,,0.00,Rainwise IP-100,2013-05-05 07:21:00,
2013-05-05 03:26:00,41.7,38.0,30.33,NW,315,3.3,3.5,85,0.00,,,0.00,Rainwise IP-100,2013-05-05 07:26:00,
2013-05-05 03:31:00,41.6,38.0,30.33,WNW,292,2.3,3.7,85,0.00,,,0.00,Rainwise IP-100,2013-05-05 07:31:00,
2013-05-05 03:36:00,41.4,38.0,30.33,NW,315,2.1,3.7,87,0.00,,,0.00,Rainwise IP-100,2013-05-05 07:36:00,
2013-05-05 03:41:00,41.3,38.0,30.33,NW,315,2.1,2.8,88,0.00,,,0.00,Rainwise IP-100,2013-05-05 07:41:00,
2013-05-05 03:46:00,41.2,38.0,30.32,NW,315,3.0,3.3,88,0.00,,,0.00,Rainwise IP-100,2013-05-05 07:46:00,
2013-05-05 03:51:00,41.0,38.0,30.33,NW,315,3.3,3.5,89,0.00,,,0.00,Rainwise IP-100,2013-05-05 07:51:00,
2013-05-05 03:56:00,40.7,38.0,30.33,NW,315,2.6,3.5,89,0.00,,,0.00,Rainwise IP-100,2013-05-05 07:56:00,
2013-05-05 04:01:00,40.6,38.0,30.33,NW,315,1.9,3.5,90,0.00,,,0.00,Rainwise IP-100,2013-05-05 08:01:00,
2013-05-05 04:06:00,40.6,38.0,30.33,NW,315,2.8,3.5,90,0.00,,,0.00,Rainwise IP-100,2013-05-05 08:06:00,
2013-05-05 04:11:00,40.5,39.0,30.33,NW,315,2.8,3.7,91,0.00,,,0.00,Rainwise IP-100,2013-05-05 08:11:00,
2013-05-05 04:16:00,40.3,38.0,30.33,NNW,337,1.9,3.3,91,0.00,,,0.00,Rainwise IP-100,2013-05-05 08:16:00,
2013-05-05 04:21:00,40.2,38.0,30.33,NNW,337,1.4,2.8,91,0.00,,,0.00,Rainwise IP-100,2013-05-05 08:21:00,
2013-05-05 04:26:00,40.3,38.0,30.33,NNW,337,0.0,2.6,91,0.00,,,0.00,Rainwise IP-100,2013-05-05 08:26:00,
2013-05-05 04:31:00,40.3,38.0,30.33,NW,315,2.1,3.3,91,0.00,,,0.00,Rainwise IP-100,2013-05-05 08:31:00,
2013-05-05 04:36:00,40.3,38.0,30.33,NW,315,3.5,3.5,91,0.00,,,0.00,Rainwise IP-100,2013-05-05 08:36:00,
2013-05-05 04:38:00,40.3,38.0,30.33,NW,315,0.0,3.7,91,0.00,,,0.00,Rainwise IP-100,2013-05-05 08:38:00,
2013-05-05 04:43:00,40.2,38.0,30.33,NW,315,1.2,2.8,91,0.00,,,0.00,Rainwise IP-100,2013-05-05 08:43:00,
2013-05-05 04:48:00,40.0,38.0,30.33,NW,315,3.3,4.7,91,0.00,,,0.00,Rainwise IP-100,2013-05-05 08:48:00,
2013-05-05 04:53:00,39.9,38.0,30.33,NW,315,3.0,5.4,91,0.00,,,0.00,Rainwise IP-100,2013-05-05 08:53:00,
2013-05-05 04:58:00,39.7,38.0,30.33,NW,315,5.8,5.8,91,0.00,,,0.00,Rainwise IP-100,2013-05-05 08:58:00,
2013-05-05 05:03:00,39.5,38.0,30.33,NW,315,3.0,5.8,91,0.00,,,0.00,Rainwise IP-100,2013-05-05 09:03:00,
2013-05-05 05:08:00,39.5,38.0,30.33,NW,315,5.1,5.1,92,0.00,,,0.00,Rainwise IP-100,2013-05-05 09:08:00,
2013-05-05 05:13:00,39.5,38.0,30.33,NW,315,3.7,5.8,92,0.00,,,0.00,Rainwise IP-100,2013-05-05 09:13:00,
2013-05-05 05:18:00,39.5,38.0,30.33,NW,315,2.8,4.4,93,0.00,,,0.00,Rainwise IP-100,2013-05-05 09:18:00,
2013-05-05 05:23:00,39.5,38.0,30.33,WNW,292,3.5,3.5,93,0.00,,,0.00,Rainwise IP-100,2013-05-05 09:23:00,
2013-05-05 05:28:00,39.5,38.0,30.33,NW,315,3.3,3.7,93,0.00,,,0.00,Rainwise IP-100,2013-05-05 09:28:00,
2013-05-05 05:33:00,39.5,38.0,30.33,NW,315,3.0,4.2,93,0.00,,,0.00,Rainwise IP-100,2013-05-05 09:33:00,
2013-05-05 05:38:00,39.5,38.0,30.33,NW,315,3.0,4.2,93,0.00,,,0.00,Rainwise IP-100,2013-05-05 09:38:00,
2013-05-05 05:43:00,39.5,38.0,30.33,WNW,292,2.3,3.7,93,0.00,,,0.00,Rainwise IP-100,2013-05-05 09:43:00,
2013-05-05 05:48:00,39.7,38.0,30.34,WNW,292,0.0,2.8,93,0.00,,,0.00,Rainwise IP-100,2013-05-05 09:48:00,
2013-05-05 05:53:00,40.1,38.0,30.34,NW,315,0.0,1.9,93,0.00,,,0.00,Rainwise IP-100,2013-05-05 09:53:00,
2013-05-05 05:58:00,40.9,39.0,30.34,NNW,337,2.8,3.5,93,0.00,,,0.00,Rainwise IP-100,2013-05-05 09:58:00,
2013-05-05 06:03:00,41.8,40.0,30.34,West,270,0.0,3.7,93,0.00,,,0.00,Rainwise IP-100,2013-05-05 10:03:00,
2013-05-05 06:08:00,42.6,41.0,30.34,NW,315,1.2,3.0,93,0.00,,,0.00,Rainwise IP-100,2013-05-05 10:08:00,
2013-05-05 06:13:00,43.4,41.0,30.35,North,0,1.4,4.9,94,0.00,,,0.00,Rainwise IP-100,2013-05-05 10:13:00,
2013-05-05 06:18:00,44.4,42.0,30.35,NNW,337,1.4,4.4,94,0.00,,,0.00,Rainwise IP-100,2013-05-05 10:18:00,
2013-05-05 06:23:00,45.1,43.0,30.34,NNW,337,0.0,4.4,93,0.00,,,0.00,Rainwise IP-100,2013-05-05 10:23:00,
2013-05-05 06:28:00,45.8,44.0,30.34,North,0,0.0,2.6,92,0.00,,,0.00,Rainwise IP-100,2013-05-05 10:28:00,
2013-05-05 06:33:00,46.7,44.0,30.34,North,0,0.0,3.3,90,0.00,,,0.00,Rainwise IP-100,2013-05-05 10:33:00,
2013-05-05 06:38:00,47.5,43.0,30.34,North,0,0.0,3.0,86,0.00,,,0.00,Rainwise IP-100,2013-05-05 10:38:00,
2013-05-05 06:43:00,48.2,43.0,30.35,North,0,0.0,2.3,83,0.00,,,0.00,Rainwise IP-100,2013-05-05 10:43:00,
2013-05-05 06:48:00,48.8,43.0,30.34,NNW,337,3.5,3.5,80,0.00,,,0.00,Rainwise IP-100,2013-05-05 10:48:00,
2013-05-05 06:53:00,48.9,42.0,30.34,NNW,337,0.0,4.2,77,0.00,,,0.00,Rainwise IP-100,2013-05-05 10:53:00,
2013-05-05 06:58:00,48.9,41.0,30.35,NNW,337,0.0,2.6,75,0.00,,,0.00,Rainwise IP-100,2013-05-05 10:58:00,
2013-05-05 07:03:00,49.4,41.0,30.34,NNW,337,2.1,4.0,75,0.00,,,0.00,Rainwise IP-100,2013-05-05 11:03:00,
2013-05-05 07:08:00,49.9,42.0,30.34,NNW,337,0.0,5.4,75,0.00,,,0.00,Rainwise IP-100,2013-05-05 11:08:00,
2013-05-05 07:13:00,50.4,42.0,30.34,NNE,22,0.0,3.0,73,0.00,,,0.00,Rainwise IP-100,2013-05-05 11:13:00,
2013-05-05 07:15:00,50.6,42.0,30.34,North,0,0.0,3.0,73,0.00,,,0.00,Rainwise IP-100,2013-05-05 11:15:00,
2013-05-05 07:20:00,51.2,42.0,30.35,North,0,0.0,1.9,72,0.00,,,0.00,Rainwise IP-100,2013-05-05 11:20:00,
2013-05-05 07:25:00,51.9,43.0,30.35,NNW,337,0.0,2.1,72,0.00,,,0.00,Rainwise IP-100,2013-05-05 11:25:00,
2013-05-05 07:30:00,52.6,43.0,30.34,WNW,292,0.0,0.0,71,0.00,,,0.00,Rainwise IP-100,2013-05-05 11:30:00,
2013-05-05 07:35:00,53.4,43.0,30.34,NW,315,0.0,3.0,69,0.00,,,0.00,Rainwise IP-100,2013-05-05 11:35:00,
2013-05-05 07:40:00,54.1,43.0,30.35,NW,315,3.5,4.0,67,0.00,,,0.00,Rainwise IP-100,2013-05-05 11:40:00,
2013-05-05 07:45:00,54.5,43.0,30.35,North,0,0.0,3.7,66,0.00,,,0.00,Rainwise IP-100,2013-05-05 11:45:00,
2013-05-05 07:50:00,54.8,43.0,30.35,NNW,337,0.0,2.8,64,0.00,,,0.00,Rainwise IP-100,2013-05-05 11:50:00,
2013-05-05 07:55:00,55.3,43.0,30.35,NNW,337,0.0,2.1,63,0.00,,,0.00,Rainwise IP-100,2013-05-05 11:55:00,
2013-05-05 08:00:00,55.8,43.0,30.35,NNW,337,0.0,5.4,63,0.00,,,0.00,Rainwise IP-100,2013-05-05 12:00:00,
2013-05-05 08:05:00,56.2,43.0,30.35,NNE,22,0.0,2.1,62,0.00,,,0.00,Rainwise IP-100,2013-05-05 12:05:00,
2013-05-05 08:10:00,56.5,43.0,30.35,NNW,337,0.0,1.9,61,0.00,,,0.00,Rainwise IP-100,2013-05-05 12:10:00,
2013-05-05 08:15:00,56.5,42.0,30.35,NE,45,1.4,2.3,59,0.00,,,0.00,Rainwise IP-100,2013-05-05 12:15:00,
2013-05-05 08:20:00,56.2,42.0,30.35,NNW,337,0.0,4.4,59,0.00,,,0.00,Rainwise IP-100,2013-05-05 12:20:00,
2013-05-05 08:25:00,56.1,42.0,30.35,NNE,22,0.0,1.6,59,0.00,,,0.00,Rainwise IP-100,2013-05-05 12:25:00,
2013-05-05 08:30:00,56.3,43.0,30.35,NNE,22,1.6,2.3,60,0.00,,,0.00,Rainwise IP-100,2013-05-05 12:30:00,
2013-05-05 08:35:00,56.7,43.0,30.35,WNW,292,0.0,2.8,60,0.00,,,0.00,Rainwise IP-100,2013-05-05 12:35:00,
2013-05-05 08:40:00,57.2,43.0,30.35,NNE,22,1.4,3.5,60,0.00,,,0.00,Rainwise IP-100,2013-05-05 12:40:00,
2013-05-05 08:45:00,57.7,44.0,30.35,NNE,22,0.0,4.2,60,0.00,,,0.00,Rainwise IP-100,2013-05-05 12:45:00,
2013-05-05 08:50:00,58.1,44.0,30.35,North,0,0.0,2.8,59,0.00,,,0.00,Rainwise IP-100,2013-05-05 12:50:00,
2013-05-05 08:55:00,58.4,43.0,30.34,North,0,0.0,4.4,58,0.00,,,0.00,Rainwise IP-100,2013-05-05 12:55:00,
2013-05-05 09:00:00,58.6,43.0,30.35,North,0,0.0,4.0,55,0.00,,,0.00,Rainwise IP-100,2013-05-05 13:00:00,
2013-05-05 09:05:00,58.6,42.0,30.34,North,0,0.0,2.3,54,0.00,,,0.00,Rainwise IP-100,2013-05-05 13:05:00,
2013-05-05 09:10:00,56.1,40.0,30.35,SSE,157,5.8,11.4,56,0.00,,,0.00,Rainwise IP-100,2013-05-05 13:10:00,
2013-05-05 09:15:00,51.4,39.0,30.35,SE,135,6.3,8.6,64,0.00,,,0.00,Rainwise IP-100,2013-05-05 13:15:00,
2013-05-05 09:20:00,48.1,39.0,30.35,SE,135,5.8,9.6,70,0.00,,,0.00,Rainwise IP-100,2013-05-05 13:20:00,
2013-05-05 09:25:00,47.1,38.0,30.34,SE,135,9.6,9.6,73,0.00,,,0.00,Rainwise IP-100,2013-05-05 13:25:00,
2013-05-05 09:30:00,46.9,39.0,30.35,SE,135,8.4,13.1,75,0.00,,,0.00,Rainwise IP-100,2013-05-05 13:30:00,
2013-05-05 09:35:00,46.8,39.0,30.35,SE,135,4.7,9.8,76,0.00,,,0.00,Rainwise IP-100,2013-05-05 13:35:00,
2013-05-05 09:40:00,47.0,39.0,30.35,SE,135,5.8,11.7,76,0.00,,,0.00,Rainwise IP-100,2013-05-05 13:40:00,
2013-05-05 09:45:00,47.0,40.0,30.34,SE,135,8.4,11.0,78,0.00,,,0.00,Rainwise IP-100,2013-05-05 13:45:00,
2013-05-05 09:50:00,46.9,40.0,30.34,SE,135,4.7,11.2,79,0.00,,,0.00,Rainwise IP-100,2013-05-05 13:50:00,
2013-05-05 09:55:00,47.1,40.0,30.35,ESE,112,8.2,11.4,78,0.00,,,0.00,Rainwise IP-100,2013-05-05 13:55:00,
2013-05-05 10:00:00,47.2,39.0,30.34,SE,135,10.5,11.4,76,0.00,,,0.00,Rainwise IP-100,2013-05-05 14:00:00,
2013-05-05 10:05:00,47.6,39.0,30.34,SE,135,8.9,11.0,74,0.00,,,0.00,Rainwise IP-100,2013-05-05 14:05:00,
2013-05-05 10:10:00,48.0,40.0,30.34,East,90,5.6,9.6,73,0.00,,,0.00,Rainwise IP-100,2013-05-05 14:10:00,
2013-05-05 10:15:00,48.1,39.0,30.34,ESE,112,7.9,10.5,72,0.00,,,0.00,Rainwise IP-100,2013-05-05 14:15:00,
2013-05-05 10:20:00,48.1,39.0,30.34,SE,135,6.3,11.7,71,0.00,,,0.00,Rainwise IP-100,2013-05-05 14:20:00,
2013-05-05 10:25:00,48.1,39.0,30.33,SSE,157,7.2,11.4,70,0.00,,,0.00,Rainwise IP-100,2013-05-05 14:25:00,
2013-05-05 10:30:00,48.1,39.0,30.33,SSE,157,11.4,11.4,70,0.00,,,0.00,Rainwise IP-100,2013-05-05 14:30:00,
2013-05-05 10:35:00,48.0,39.0,30.33,ESE,112,10.7,13.5,71,0.00,,,0.00,Rainwise IP-100,2013-05-05 14:35:00,
2013-05-05 10:40:00,47.4,39.0,30.33,SSE,157,12.4,13.3,74,0.00,,,0.00,Rainwise IP-100,2013-05-05 14:40:00,
2013-05-05 10:45:00,47.1,40.0,30.33,SE,135,7.9,12.4,77,0.00,,,0.00,Rainwise IP-100,2013-05-05 14:45:00,
2013-05-05 10:50:00,47.2,40.0,30.33,SE,135,10.0,14.0,78,0.00,,,0.00,Rainwise IP-100,2013-05-05 14:50:00,
2013-05-05 10:55:00,47.3,41.0,30.32,SSE,157,9.8,12.8,79,0.00,,,0.00,Rainwise IP-100,2013-05-05 14:55:00,
2013-05-05 11:00:00,47.5,41.0,30.32,SE,135,7.2,12.8,79,0.00,,,0.00,Rainwise IP-100,2013-05-05 15:00:00,
2013-05-05 11:05:00,47.8,42.0,30.32,SE,135,10.7,12.6,79,0.00,,,0.00,Rainwise IP-100,2013-05-05 15:05:00,
2013-05-05 11:10:00,48.0,42.0,30.32,SE,135,10.5,11.2,79,0.00,,,0.00,Rainwise IP-100,2013-05-05 15:10:00,
2013-05-05 11:15:00,48.0,42.0,30.32,ESE,112,10.0,14.2,79,0.00,,,0.00,Rainwise IP-100,2013-05-05 15:15:00,
2013-05-05 11:20:00,47.9,42.0,30.32,SE,135,5.8,10.0,80,0.00,,,0.00,Rainwise IP-100,2013-05-05 15:20:00,
2013-05-05 11:25:00,48.3,42.0,30.32,SE,135,5.8,8.9,80,0.00,,,0.00,Rainwise IP-100,2013-05-05 15:25:00,
2013-05-05 11:30:00,49.3,43.0,30.32,ESE,112,6.3,7.2,79,0.00,,,0.00,Rainwise IP-100,2013-05-05 15:30:00,
2013-05-05 11:35:00,50.1,42.0,30.32,ESE,112,3.7,7.0,76,0.00,,,0.00,Rainwise IP-100,2013-05-05 15:35:00,
2013-05-05 11:40:00,50.8,44.0,30.32,ESE,112,4.2,4.9,76,0.00,,,0.00,Rainwise IP-100,2013-05-05 15:40:00,
2013-05-05 11:45:00,52.0,43.0,30.32,ESE,112,6.3,7.2,73,0.00,,,0.00,Rainwise IP-100,2013-05-05 15:45:00,
2013-05-05 11:50:00,52.5,43.0,30.32,ESE,112,5.4,8.2,70,0.00,,,0.00,Rainwise IP-100,2013-05-05 15:50:00,
2013-05-05 11:55:00,52.7,42.0,30.32,ESE,112,1.6,6.3,68,0.00,,,0.00,Rainwise IP-100,2013-05-05 15:55:00,
2013-05-05 12:00:00,53.6,42.0,30.32,East,90,3.5,4.9,67,0.00,,,0.00,Rainwise IP-100,2013-05-05 16:00:00,
2013-05-05 12:05:00,54.7,43.0,30.32,East,90,4.2,5.1,65,0.00,,,0.00,Rainwise IP-100,2013-05-05 16:05:00,
2013-05-05 12:10:00,55.7,42.0,30.32,SE,135,1.9,4.7,60,0.00,,,0.00,Rainwise IP-100,2013-05-05 16:10:00,
2013-05-05 12:15:00,56.5,41.0,30.31,NE,45,3.3,5.1,56,0.00,,,0.00,Rainwise IP-100,2013-05-05 16:15:00,
2013-05-05 12:20:00,57.2,41.0,30.31,SE,135,1.2,5.6,56,0.00,,,0.00,Rainwise IP-100,2013-05-05 16:20:00,
2013-05-05 12:25:00,58.5,43.0,30.31,WNW,292,4.0,10.3,55,0.00,,,0.00,Rainwise IP-100,2013-05-05 16:25:00,
2013-05-05 12:30:00,59.7,41.0,30.31,NNW,337,8.4,12.1,50,0.00,,,0.00,Rainwise IP-100,2013-05-05 16:30:00,
2013-05-05 12:35:00,60.1,39.0,30.31,NW,315,0.0,14.2,47,0.00,,,0.00,Rainwise IP-100,2013-05-05 16:35:00,
2013-05-05 12:40:00,60.6,40.0,30.31,NW,315,4.9,12.8,47,0.00,,,0.00,Rainwise IP-100,2013-05-05 16:40:00,
2013-05-05 12:45:00,60.6,39.0,30.31,NNW,337,5.6,13.5,46,0.00,,,0.00,Rainwise IP-100,2013-05-05 16:45:00,
2013-05-05 12:50:00,60.7,39.0,30.31,WNW,292,7.9,11.9,46,0.00,,,0.00,Rainwise IP-100,2013-05-05 16:50:00,
2013-05-05 12:55:00,60.9,39.0,30.30,SW,225,11.9,15.4,45,0.00,,,0.00,Rainwise IP-100,2013-05-05 16:55:00,
2013-05-05 13:00:00,60.6,39.0,30.30,WSW,247,1.9,12.4,45,0.00,,,0.00,Rainwise IP-100,2013-05-05 17:00:00,
2013-05-05 13:05:00,60.2,38.0,30.30,West,270,8.6,15.4,45,0.00,,,0.00,Rainwise IP-100,2013-05-05 17:05:00,
2013-05-05 13:10:00,59.9,38.0,30.30,WNW,292,10.3,15.4,45,0.00,,,0.00,Rainwise IP-100,2013-05-05 17:10:00,
2013-05-05 13:15:00,59.6,38.0,30.30,WSW,247,0.0,14.0,45,0.00,,,0.00,Rainwise IP-100,2013-05-05 17:15:00,
2013-05-05 13:20:00,59.6,38.0,30.30,WSW,247,8.6,12.6,45,0.00,,,0.00,Rainwise IP-100,2013-05-05 17:20:00,
2013-05-05 13:25:00,59.8,38.0,30.30,NNW,337,4.9,13.3,45,0.00,,,0.00,Rainwise IP-100,2013-05-05 17:25:00,
2013-05-05 13:30:00,60.2,38.0,30.30,NW,315,3.3,9.8,45,0.00,,,0.00,Rainwise IP-100,2013-05-05 17:30:00,
2013-05-05 13:35:00,60.6,38.0,30.31,West,270,8.4,9.6,44,0.00,,,0.00,Rainwise IP-100,2013-05-05 17:35:00,
2013-05-05 13:40:00,60.2,38.0,30.30,NW,315,3.5,12.8,44,0.00,,,0.00,Rainwise IP-100,2013-05-05 17:40:00,
2013-05-05 13:45:00,60.5,38.0,30.30,South,180,2.6,10.5,44,0.00,,,0.00,Rainwise IP-100,2013-05-05 17:45:00,
2013-05-05 13:50:00,61.1,39.0,30.30,NW,315,4.2,9.6,44,0.00,,,0.00,Rainwise IP-100,2013-05-05 17:50:00,
2013-05-05 13:55:00,61.3,39.0,30.30,WSW,247,5.8,12.4,43,0.00,,,0.00,Rainwise IP-100,2013-05-05 17:55:00,
2013-05-05 14:00:00,61.6,39.0,30.31,WNW,292,6.1,11.7,43,0.00,,,0.00,Rainwise IP-100,2013-05-05 18:00:00,
2013-05-05 14:05:00,61.9,39.0,30.30,WNW,292,0.0,11.7,42,0.00,,,0.00,Rainwise IP-100,2013-05-05 18:05:00,
2013-05-05 14:10:00,62.5,39.0,30.30,WNW,292,6.5,7.7,42,0.00,,,0.00,Rainwise IP-100,2013-05-05 18:10:00,
2013-05-05 14:15:00,62.7,38.0,30.30,West,270,5.8,10.0,41,0.00,,,0.00,Rainwise IP-100,2013-05-05 18:15:00,
2013-05-05 14:20:00,62.0,38.0,30.30,SW,225,7.0,9.8,41,0.00,,,0.00,Rainwise IP-100,2013-05-05 18:20:00,
2013-05-05 14:25:00,61.5,38.0,30.30,WSW,247,2.6,11.0,41,0.00,,,0.00,Rainwise IP-100,2013-05-05 18:25:00,
2013-05-05 14:30:00,61.7,38.0,30.30,West,270,7.5,11.9,41,0.00,,,0.00,Rainwise IP-100,2013-05-05 18:30:00,
2013-05-05 14:35:00,61.6,38.0,30.30,WSW,247,6.5,11.7,41,0.00,,,0.00,Rainwise IP-100,2013-05-05 18:35:00,
2013-05-05 14:40:00,61.2,38.0,30.29,SSW,202,6.8,11.0,42,0.00,,,0.00,Rainwise IP-100,2013-05-05 18:40:00,
2013-05-05 14:45:00,60.9,38.0,30.30,NW,315,5.8,12.6,42,0.00,,,0.00,Rainwise IP-100,2013-05-05 18:45:00,
2013-05-05 14:50:00,61.1,38.0,30.30,NW,315,8.2,12.1,43,0.00,,,0.00,Rainwise IP-100,2013-05-05 18:50:00,
2013-05-05 14:55:00,61.3,39.0,30.29,WNW,292,7.2,14.5,43,0.00,,,0.00,Rainwise IP-100,2013-05-05 18:55:00,
2013-05-05 15:00:00,60.8,38.0,30.30,SW,225,3.0,11.0,43,0.00,,,0.00,Rainwise IP-100,2013-05-05 19:00:00,
2013-05-05 15:05:00,60.9,38.0,30.30,South,180,2.6,10.0,43,0.00,,,0.00,Rainwise IP-100,2013-05-05 19:05:00,
2013-05-05 15:10:00,61.4,39.0,30.29,SW,225,3.7,9.3,43,0.00,,,0.00,Rainwise IP-100,2013-05-05 19:10:00,
2013-05-05 15:15:00,61.1,38.0,30.29,WNW,292,10.5,11.4,43,0.00,,,0.00,Rainwise IP-100,2013-05-05 19:15:00,
2013-05-05 15:20:00,60.7,38.0,30.30,NW,315,6.8,14.7,44,0.00,,,0.00,Rainwise IP-100,2013-05-05 19:20:00,
2013-05-05 15:25:00,61.2,39.0,30.29,SW,225,0.0,13.1,44,0.00,,,0.00,Rainwise IP-100,2013-05-05 19:25:00,
2013-05-05 15:30:00,61.2,38.0,30.29,South,180,3.5,12.8,43,0.00,,,0.00,Rainwise IP-100,2013-05-05 19:30:00,
2013-05-05 15:35:00,60.9,38.0,30.29,West,270,3.7,9.6,43,0.00,,,0.00,Rainwise IP-100,2013-05-05 19:35:00,
2013-05-05 15:40:00,61.0,39.0,30.29,West,270,1.6,7.9,44,0.00,,,0.00,Rainwise IP-100,2013-05-05 19:40:00,
2013-05-05 15:45:00,60.9,39.0,30.29,West,270,7.2,9.3,44,0.00,,,0.00,Rainwise IP-100,2013-05-05 19:45:00,
2013-05-05 15:50:00,60.7,39.0,30.29,NW,315,8.4,11.7,45,0.00,,,0.00,Rainwise IP-100,2013-05-05 19:50:00,
2013-05-05 15:55:00,59.7,38.0,30.29,WNW,292,12.8,16.8,46,0.00,,,0.00,Rainwise IP-100,2013-05-05 19:55:00,
2013-05-05 16:00:00,58.7,39.0,30.29,SW,225,2.1,14.5,47,0.00,,,0.00,Rainwise IP-100,2013-05-05 20:00:00,
2013-05-05 16:05:00,58.9,39.0,30.29,West,270,3.0,11.0,47,0.00,,,0.00,Rainwise IP-100,2013-05-05 20:05:00,
2013-05-05 16:10:00,59.2,39.0,30.29,South,180,3.0,11.4,47,0.00,,,0.00,Rainwise IP-100,2013-05-05 20:10:00,
2013-05-05 16:15:00,59.3,39.0,30.28,SW,225,4.7,15.2,47,0.00,,,0.00,Rainwise IP-100,2013-05-05 20:15:00,
2013-05-05 16:20:00,59.3,39.0,30.28,SW,225,3.5,13.8,47,0.00,,,0.00,Rainwise IP-100,2013-05-05 20:20:00,
2013-05-05 16:25:00,58.8,39.0,30.28,West,270,7.9,14.0,48,0.00,,,0.00,Rainwise IP-100,2013-05-05 20:25:00,
2013-05-05 16:30:00,58.6,39.0,30.28,WNW,292,12.6,15.2,48,0.00,,,0.00,Rainwise IP-100,2013-05-05 20:30:00,
2013-05-05 16:35:00,58.6,39.0,30.28,WNW,292,7.7,13.8,48,0.00,,,0.00,Rainwise IP-100,2013-05-05 20:35:00,
2013-05-05 16:40:00,58.7,39.0,30.29,WSW,247,2.6,12.4,48,0.00,,,0.00,Rainwise IP-100,2013-05-05 20:40:00,
2013-05-05 16:45:00,58.9,39.0,30.28,West,270,10.3,13.8,48,0.00,,,0.00,Rainwise IP-100,2013-05-05 20:45:00,
2013-05-05 16:50:00,58.7,39.0,30.28,NNE,22,5.6,12.8,48,0.00,,,0.00,Rainwise IP-100,2013-05-05 20:50:00,
2013-05-05 16:55:00,58.8,39.0,30.28,West,270,4.2,10.5,48,0.00,,,0.00,Rainwise IP-100,2013-05-05 20:55:00,
2013-05-05 17:00:00,59.3,39.0,30.28,WSW,247,11.4,11.4,47,0.00,,,0.00,Rainwise IP-100,2013-05-05 21:00:00,
2013-05-05 17:05:00,58.9,39.0,30.28,WNW,292,12.6,13.3,47,0.00,,,0.00,Rainwise IP-100,2013-05-05 21:05:00,
2013-05-05 17:10:00,58.1,39.0,30.28,West,270,8.6,13.8,48,0.00,,,0.00,Rainwise IP-100,2013-05-05 21:10:00,
2013-05-05 17:15:00,57.5,39.0,30.28,West,270,13.3,13.8,49,0.00,,,0.00,Rainwise IP-100,2013-05-05 21:15:00,
2013-05-05 17:20:00,57.1,38.0,30.28,WSW,247,7.5,16.8,49,0.00,,,0.00,Rainwise IP-100,2013-05-05 21:20:00,
2013-05-05 17:25:00,56.8,39.0,30.28,WNW,292,6.3,15.6,50,0.00,,,0.00,Rainwise IP-100,2013-05-05 21:25:00,
2013-05-05 17:30:00,56.7,38.0,30.28,North,0,4.2,12.6,50,0.00,,,0.00,Rainwise IP-100,2013-05-05 21:30:00,
2013-05-05 17:35:00,56.9,39.0,30.28,West,270,12.8,14.9,50,0.00,,,0.00,Rainwise IP-100,2013-05-05 21:35:00,
2013-05-05 17:40:00,56.9,39.0,30.28,West,270,2.8,14.5,50,0.00,,,0.00,Rainwise IP-100,2013-05-05 21:40:00,
2013-05-05 17:45:00,56.8,39.0,30.28,WNW,292,7.5,9.1,50,0.00,,,0.00,Rainwise IP-100,2013-05-05 21:45:00,
2013-05-05 17:50:00,57.0,38.0,30.28,WNW,292,2.1,10.5,49,0.00,,,0.00,Rainwise IP-100,2013-05-05 21:50:00,
2013-05-05 17:55:00,57.2,38.0,30.28,WNW,292,4.4,11.4,49,0.00,,,0.00,Rainwise IP-100,2013-05-05 21:55:00,
2013-05-05 18:00:00,57.3,39.0,30.28,West,270,11.4,11.4,49,0.00,,,0.00,Rainwise IP-100,2013-05-05 22:00:00,
2013-05-05 18:05:00,56.8,39.0,30.28,NW,315,6.8,12.1,50,0.00,,,0.00,Rainwise IP-100,2013-05-05 22:05:00,
2013-05-05 18:10:00,56.6,38.0,30.28,NW,315,4.9,9.1,51,0.00,,,0.00,Rainwise IP-100,2013-05-05 22:10:00,
2013-05-05 18:15:00,56.8,39.0,30.28,NW,315,4.2,9.3,51,0.00,,,0.00,Rainwise IP-100,2013-05-05 22:15:00,
2013-05-05 18:20:00,56.8,39.0,30.28,WNW,292,5.8,10.5,51,0.00,,,0.00,Rainwise IP-100,2013-05-05 22:20:00,
2013-05-05 18:25:00,56.6,38.0,30.28,WNW,292,8.2,8.2,51,0.00,,,0.00,Rainwise IP-100,2013-05-05 22:25:00,
2013-05-05 18:30:00,56.4,38.0,30.28,West,270,6.1,9.3,51,0.00,,,0.00,Rainwise IP-100,2013-05-05 22:30:00,
2013-05-05 18:35:00,55.8,38.0,30.28,WSW,247,2.3,10.3,51,0.00,,,0.00,Rainwise IP-100,2013-05-05 22:35:00,
2013-05-05 18:40:00,55.5,38.0,30.28,NW,315,6.1,6.8,52,0.00,,,0.00,Rainwise IP-100,2013-05-05 22:40:00,
2013-05-05 18:45:00,55.2,38.0,30.28,WNW,292,4.7,11.4,52,0.00,,,0.00,Rainwise IP-100,2013-05-05 22:45:00,
2013-05-05 18:50:00,54.8,38.0,30.28,WNW,292,4.0,10.5,52,0.00,,,0.00,Rainwise IP-100,2013-05-05 22:50:00,
2013-05-05 18:55:00,54.2,37.0,30.28,WNW,292,9.8,15.6,53,0.00,,,0.00,Rainwise IP-100,2013-05-05 22:55:00,
2013-05-05 19:00:00,53.1,37.0,30.28,WNW,292,7.5,16.1,55,0.00,,,0.00,Rainwise IP-100,2013-05-05 23:00:00,
2013-05-05 19:05:00,52.6,37.0,30.28,WNW,292,7.7,13.3,56,0.00,,,0.00,Rainwise IP-100,2013-05-05 23:05:00,
2013-05-05 19:10:00,52.4,37.0,30.28,WNW,292,2.3,14.2,57,0.00,,,0.00,Rainwise IP-100,2013-05-05 23:10:00,
2013-05-05 19:15:00,52.2,37.0,30.28,SSW,202,0.0,13.1,56,0.00,,,0.00,Rainwise IP-100,2013-05-05 23:15:00,
2013-05-05 19:20:00,52.1,37.0,30.28,WNW,292,2.3,7.7,56,0.00,,,0.00,Rainwise IP-100,2013-05-05 23:20:00,
2013-05-05 19:25:00,51.8,37.0,30.28,WNW,292,2.8,11.4,57,0.00,,,0.00,Rainwise IP-100,2013-05-05 23:25:00,
2013-05-05 19:30:00,51.4,37.0,30.28,West,270,6.3,10.5,58,0.00,,,0.00,Rainwise IP-100,2013-05-05 23:30:00,
2013-05-05 19:35:00,51.1,37.0,30.28,SW,225,1.6,9.6,58,0.00,,,0.00,Rainwise IP-100,2013-05-05 23:35:00,
2013-05-05 19:40:00,50.5,37.0,30.28,WNW,292,3.5,11.0,59,0.00,,,0.00,Rainwise IP-100,2013-05-05 23:40:00,
2013-05-05 19:45:00,50.1,36.0,30.28,WSW,247,2.6,8.9,59,0.00,,,0.00,Rainwise IP-100,2013-05-05 23:45:00,
2013-05-05 19:50:00,49.8,37.0,30.28,SW,225,8.4,10.0,60,0.00,,,0.00,Rainwise IP-100,2013-05-05 23:50:00,
2013-05-05 19:55:00,49.6,37.0,30.28,SW,225,2.3,10.3,60,0.00,,,0.00,Rainwise IP-100,2013-05-05 23:55:00,
2013-05-05 20:00:00,49.4,36.0,30.28,SSW,202,1.4,9.3,60,0.00,,,0.00,Rainwise IP-100,2013-05-06 00:00:00,
2013-05-05 20:05:00,49.3,36.0,30.28,SSW,202,0.0,12.8,60,0.00,,,0.00,Rainwise IP-100,2013-05-06 00:05:00,
2013-05-05 20:10:00,49.5,37.0,30.28,SW,225,2.6,7.5,60,0.00,,,0.00,Rainwise IP-100,2013-05-06 00:10:00,
2013-05-05 20:15:00,49.6,36.0,30.28,SE,135,2.8,5.4,59,0.00,,,0.00,Rainwise IP-100,2013-05-06 00:15:00,
2013-05-05 20:20:00,49.1,37.0,30.28,SE,135,4.2,6.1,62,0.00,,,0.00,Rainwise IP-100,2013-05-06 00:20:00,
2013-05-05 20:25:00,48.1,38.0,30.28,SSE,157,4.0,5.8,68,0.00,,,0.00,Rainwise IP-100,2013-05-06 00:25:00,
2013-05-05 20:30:00,47.5,39.0,30.28,SE,135,3.3,4.7,73,0.00,,,0.00,Rainwise IP-100,2013-05-06 00:30:00,
2013-05-05 20:35:00,47.1,39.0,30.28,ENE,67,0.0,4.2,74,0.00,,,0.00,Rainwise IP-100,2013-05-06 00:35:00,
2013-05-05 20:40:00,47.0,39.0,30.28,East,90,2.1,3.0,75,0.00,,,0.00,Rainwise IP-100,2013-05-06 00:40:00,
2013-05-05 20:45:00,46.9,39.0,30.28,East,90,4.2,4.9,76,0.00,,,0.00,Rainwise IP-100,2013-05-06 00:45:00,
2013-05-05 20:50:00,46.7,40.0,30.29,ENE,67,3.5,4.7,77,0.00,,,0.00,Rainwise IP-100,2013-05-06 00:50:00,
2013-05-05 20:55:00,46.6,40.0,30.28,SSE,157,3.7,4.2,78,0.00,,,0.00,Rainwise IP-100,2013-05-06 00:55:00,
2013-05-05 21:00:00,46.6,40.0,30.28,ESE,112,2.1,5.1,78,0.00,,,0.00,Rainwise IP-100,2013-05-06 01:00:00,
2013-05-05 21:05:00,46.7,40.0,30.29,ESE,112,2.6,4.0,77,0.00,,,0.00,Rainwise IP-100,2013-05-06 01:05:00,
2013-05-05 21:10:00,46.8,39.0,30.29,ENE,67,4.0,4.2,76,0.00,,,0.00,Rainwise IP-100,2013-05-06 01:10:00,
2013-05-05 21:15:00,46.6,40.0,30.29,ENE,67,4.0,6.1,77,0.00,,,0.00,Rainwise IP-100,2013-05-06 01:15:00,
2013-05-05 21:20:00,46.4,39.0,30.29,South,180,4.4,4.9,77,0.00,,,0.00,Rainwise IP-100,2013-05-06 01:20:00,
2013-05-05 21:25:00,46.1,39.0,30.29,South,180,3.5,4.4,77,0.00,,,0.00,Rainwise IP-100,2013-05-06 01:25:00,
2013-05-05 21:30:00,45.9,39.0,30.29,SW,225,3.0,4.7,77,0.00,,,0.00,Rainwise IP-100,2013-05-06 01:30:00,
2013-05-05 21:35:00,46.0,38.0,30.29,SSW,202,1.6,4.2,75,0.00,,,0.00,Rainwise IP-100,2013-05-06 01:35:00,
2013-05-05 21:40:00,45.9,38.0,30.29,SW,225,1.6,3.5,74,0.00,,,0.00,Rainwise IP-100,2013-05-06 01:40:00,
2013-05-05 21:45:00,45.8,37.0,30.28,NW,315,1.9,3.5,72,0.00,,,0.00,Rainwise IP-100,2013-05-06 01:45:00,
2013-05-05 21:50:00,46.0,37.0,30.28,SSW,202,3.0,3.5,71,0.00,,,0.00,Rainwise IP-100,2013-05-06 01:50:00,
2013-05-05 21:55:00,46.1,37.0,30.28,SSW,202,2.8,3.5,71,0.00,,,0.00,Rainwise IP-100,2013-05-06 01:55:00,
2013-05-05 22:00:00,45.9,37.0,30.28,SW,225,2.6,4.9,71,0.00,,,0.00,Rainwise IP-100,2013-05-06 02:00:00,
2013-05-05 22:05:00,45.8,37.0,30.29,SW,225,1.4,4.0,71,0.00,,,0.00,Rainwise IP-100,2013-05-06 02:05:00,
2013-05-05 22:10:00,45.7,37.0,30.29,SW,225,2.6,3.5,71,0.00,,,0.00,Rainwise IP-100,2013-05-06 02:10:00,
2013-05-05 22:15:00,45.6,37.0,30.28,SW,225,3.5,3.5,71,0.00,,,0.00,Rainwise IP-100,2013-05-06 02:15:00,
2013-05-05 22:20:00,45.4,36.0,30.28,SW,225,0.0,3.7,71,0.00,,,0.00,Rainwise IP-100,2013-05-06 02:20:00,
2013-05-05 22:25:00,45.4,36.0,30.28,SW,225,0.0,1.9,71,0.00,,,0.00,Rainwise IP-100,2013-05-06 02:25:00,
2013-05-05 22:30:00,45.3,37.0,30.28,SW,225,0.0,0.0,72,0.00,,,0.00,Rainwise IP-100,2013-05-06 02:30:00,
2013-05-05 22:35:00,44.9,38.0,30.29,West,270,0.0,2.1,75,0.00,,,0.00,Rainwise IP-100,2013-05-06 02:35:00,
2013-05-05 22:40:00,44.6,38.0,30.29,SSE,157,1.6,2.6,77,0.00,,,0.00,Rainwise IP-100,2013-05-06 02:40:00,
2013-05-05 22:45:00,44.6,38.0,30.29,South,180,2.1,3.7,77,0.00,,,0.00,Rainwise IP-100,2013-05-06 02:45:00,
2013-05-05 22:50:00,44.4,37.0,30.28,South,180,3.5,4.4,76,0.00,,,0.00,Rainwise IP-100,2013-05-06 02:50:00,
2013-05-05 22:55:00,44.2,37.0,30.29,SW,225,1.4,5.1,75,0.00,,,0.00,Rainwise IP-100,2013-05-06 02:55:00,
2013-05-05 23:00:00,44.2,37.0,30.29,SW,225,1.9,4.2,75,0.00,,,0.00,Rainwise IP-100,2013-05-06 03:00:00,
2013-05-05 23:05:00,44.5,37.0,30.29,SSE,157,0.0,4.2,74,0.00,,,0.00,Rainwise IP-100,2013-05-06 03:05:00,
2013-05-05 23:10:00,44.7,37.0,30.29,South,180,3.3,6.1,73,0.00,,,0.00,Rainwise IP-100,2013-05-06 03:10:00,
2013-05-05 23:15:00,44.8,37.0,30.30,WSW,247,3.0,6.5,72,0.00,,,0.00,Rainwise IP-100,2013-05-06 03:15:00,
2013-05-05 23:20:00,44.9,37.0,30.30,WSW,247,0.0,3.5,72,0.00,,,0.00,Rainwise IP-100,2013-05-06 03:20:00,
2013-05-05 23:25:00,44.8,37.0,30.30,WNW,292,2.3,2.3,73,0.00,,,0.00,Rainwise IP-100,2013-05-06 03:25:00,
2013-05-05 23:30:00,44.7,37.0,30.30,NE,45,1.4,3.7,73,0.00,,,0.00,Rainwise IP-100,2013-05-06 03:30:00,
2013-05-05 23:35:00,44.8,37.0,30.30,ESE,112,1.2,2.6,74,0.00,,,0.00,Rainwise IP-100,2013-05-06 03:35:00,
2013-05-05 23:40:00,44.8,38.0,30.30,South,180,1.6,2.3,75,0.00,,,0.00,Rainwise IP-100,2013-05-06 03:40:00,
2013-05-05 23:45:00,44.6,37.0,30.30,South,180,1.6,4.0,74,0.00,,,0.00,Rainwise IP-100,2013-05-06 03:45:00,
2013-05-05 23:50:00,44.3,36.0,30.30,South,180,0.0,2.1,73,0.00,,,0.00,Rainwise IP-100,2013-05-06 03:50:00,
2013-05-05 23:55:00,44.0,36.0,30.29,South,180,0.0,0.0,74,0.00,,,0.00,Rainwise IP-100,2013-05-06 03:55:00,